Weather History for Siemreap, Cambodia

Change the Weather History Date:

Tuesday, January 22, 2013

  Actual Average Record
Temperature  
Mean Temperature 80 °F -  
Max Temperature 89 °F - - ()
Min Temperature 71 °F - - ()
Cooling Degree Days 15    
Growing Degree Days 30 (Base 50)    
Moisture  
Dew Point 69 °F    
Average Humidity 65    
Maximum Humidity 88    
Minimum Humidity 46    
Precipitation  
Precipitation 0.00 in - - ()
Sea Level Pressure  
Sea Level Pressure 29.90 in    
Wind  
Wind Speed 4 mph ()    
Max Wind Speed 10 mph    
Max Gust Speed -    
Visibility 4.4 miles    
Events      
T = Trace of Precipitation, MM = Missing Value Source: Averaged Metar Reports

Daily Weather History Graph

Daily Weather History Graph

Search for Another Location

Airport:

Trip Planner

Search our weather history database for the weather conditions in past years. The results will help you decide how hot, cold, wet, or windy it might be!

Date:

Astronomy

Jan. 22, 2013 Rise Set
Actual Time 6:31 AM ICT 6:00 PM ICT
Civil Twilight 6:09 AM ICT 6:23 PM ICT
Nautical Twilight 5:43 AM ICT 6:48 PM ICT
Astronomical Twilight 5:17 AM ICT 7:14 PM ICT
Moon 2:04 PM ICT (1/22) 2:21 AM ICT (1/22)
Length of Visible Light 12h 13m
Length of Day
11h 28m
Waxing Gibbous, 79% of the Moon is Illuminated
Jan 22
Waxing Gibbous
Jan 27
Full
Feb 3
Last Quarter
Feb 10
New
Feb 18
First Quarter

Hourly Weather History & Observations

Time (ICT) Temp. Heat Index Dew Point Humidity Pressure Visibility Wind Dir Wind Speed Gust Speed Precip Events Conditions
12:00 AM 73.4 °F - 69.8 °F 88% 29.92 in 4.3 mi NNW 1.2 mph - N/A   Unknown
12:30 AM 75.2 °F - 69.8 °F 83% 29.92 in 4.3 mi North 4.6 mph - N/A   Unknown
7:00 AM 71.6 °F - 68.0 °F 88% 29.95 in 1.9 mi East 5.8 mph - N/A   Mist
7:30 AM 73.4 °F - 68.0 °F 83% 29.95 in 1.9 mi Calm Calm - N/A   Mist
8:00 AM 77.0 °F - 68.0 °F 74% 29.95 in 1.9 mi Calm Calm - N/A   Mist
8:30 AM 78.8 °F - 68.0 °F 69% 29.98 in 1.9 mi Variable 2.3 mph - N/A   Mist
9:00 AM 80.6 °F 82.7 °F 66.2 °F 61% 29.98 in 3.1 mi ESE 6.9 mph - N/A   Mist
9:30 AM 82.4 °F 84.6 °F 66.2 °F 58% 29.98 in 3.7 mi ESE 10.4 mph - N/A   Unknown
10:00 AM 84.2 °F 86.6 °F 66.2 °F 55% 29.98 in 4.3 mi SE 10.4 mph - N/A   Unknown
10:30 AM 86.0 °F 88.2 °F 66.2 °F 51% 29.98 in 5.0 mi SE 9.2 mph - N/A   Unknown
11:00 AM 86.0 °F 88.2 °F 66.2 °F 51% 29.95 in - ESE 8.1 mph - N/A   Clear
11:30 AM 87.8 °F 90.4 °F 66.2 °F 49% 29.95 in - ESE 8.1 mph - N/A   Clear
12:00 PM 89.6 °F 92.2 °F 66.2 °F 46% 29.92 in - SSE 4.6 mph - N/A   Clear
12:30 PM 89.6 °F 93.4 °F 68.0 °F 49% 29.89 in - Variable 4.6 mph - N/A   Clear
1:00 PM 89.6 °F 93.4 °F 68.0 °F 49% 29.89 in - SSW 8.1 mph - N/A   Clear
1:30 PM 89.6 °F 94.7 °F 69.8 °F 52% 29.86 in 6.2 mi South 8.1 mph - N/A   Partly Cloudy
2:00 PM 89.6 °F 94.7 °F 69.8 °F 52% 29.86 in 6.2 mi SSW 6.9 mph - N/A   Partly Cloudy
2:30 PM 89.6 °F 94.7 °F 69.8 °F 52% 29.83 in 6.2 mi SSW 9.2 mph - N/A   Partly Cloudy
3:00 PM 89.6 °F 94.7 °F 69.8 °F 52% 29.83 in 6.2 mi SSW 8.1 mph - N/A   Partly Cloudy
3:30 PM 89.6 °F 93.4 °F 68.0 °F 49% 29.83 in 6.2 mi SSW 8.1 mph - N/A   Partly Cloudy
4:00 PM 89.6 °F 93.4 °F 68.0 °F 49% 29.83 in 6.2 mi SSW 9.2 mph - N/A   Partly Cloudy
4:30 PM 87.8 °F 91.4 °F 68.0 °F 52% 29.83 in - South 6.9 mph - N/A   Clear
5:00 PM 87.8 °F 91.4 °F 68.0 °F 52% 29.83 in - South 6.9 mph - N/A   Clear
5:30 PM 86.0 °F 89.4 °F 68.0 °F 55% 29.83 in - South 6.9 mph - N/A   Clear
6:00 PM 84.2 °F 88.4 °F 69.8 °F 62% 29.83 in 5.6 mi South 4.6 mph - N/A   Unknown
6:30 PM 82.4 °F 86.3 °F 69.8 °F 66% 29.86 in 5.6 mi SSE 4.6 mph - N/A   Unknown
7:00 PM 82.4 °F 86.3 °F 69.8 °F 66% 29.86 in 5.6 mi SSE 3.5 mph - N/A   Unknown
7:30 PM 80.6 °F 84.6 °F 71.6 °F 74% 29.86 in 5.6 mi South 1.2 mph - N/A   Unknown
8:00 PM 80.6 °F 84.6 °F 71.6 °F 74% 29.89 in 4.3 mi Calm Calm - N/A   Unknown
8:30 PM 80.6 °F 84.6 °F 71.6 °F 74% 29.89 in 4.3 mi NE 1.2 mph - N/A   Unknown
9:00 PM 78.8 °F - 73.4 °F 83% 29.89 in 4.3 mi East 1.2 mph - N/A   Unknown
9:30 PM 78.8 °F - 71.6 °F 78% 29.92 in 3.7 mi East 1.2 mph - N/A   Unknown
10:00 PM 77.0 °F - 71.6 °F 83% 29.89 in 3.7 mi North 2.3 mph - N/A   Unknown
10:30 PM 77.0 °F - 71.6 °F 83% 29.89 in 3.7 mi North 2.3 mph - N/A   Unknown
11:00 PM 77.0 °F - 71.6 °F 83% 29.89 in 3.7 mi NE 2.3 mph - N/A   Unknown
11:30 PM 77.0 °F - 71.6 °F 83% 29.89 in 3.7 mi NE 2.3 mph - N/A   Unknown